Weather in Zamezhnaya

Russia / Komi Republic     65°02′32″N   51°58′28″E
temp.,
°C
wind,
m/s
gust,
m/s
humid.,
%
clouds,
%
prec.,
mm/h
press.,
hPa
HPBL,
m
2 august, mon
mon200:00+9wsw11945 0.0 100411
03:00+9sw119627 0.0 100513
06:00+13wsw018016 0.0 1005208
09:00+19sse1259100 0.0 1005744
12:00+22ssw235397 0.2 10031346
15:00+17sw2578100 0.6 1005242
18:00+18ssw128084 0.1 1005184
21:00+14sw11972 0.2 100624
3 august, tue
tue300:00+13sw229879 0.0 100727
03:00+12ssw239877 0.0 100878
06:00+15sw249271 0.0 1009334
09:00+19ssw357288 0.0 1008744
12:00+24s454784 0.0 10071530
15:00+25s4646100 0.0 10051424
18:00+24se5105691 0.0 10031135
21:00+18s2594100 1.6 1004108
4 august, wed
wed400:00+17sse399880 2.7 1004301
03:00+16ssw2399100 2.7 100587
06:00+18sw249264 0.0 1005273
09:00+22sw345869 0.0 10061144
12:00+24sw46416 0.0 10062034
15:00+24sw564284 0.0 10071986
18:00+22ssw255166 0.0 1007190
21:00+18wnw3962100 0.0 1009514
5 august, thu
thu500:00+15wnw2673100 0.0 1010318
03:00+11w2583100 0.0 101291
06:00+12wnw486696 0.0 1013524
09:00+15wnw455125 0.0 10151294
12:00+15wnw564978 0.0 10161559
15:00+15nw3651100 0.0 10171715
18:00+14nw3562100 0.0 1018818
21:00+12nnw2672100 0.0 1019454
6 august, fri
fri600:00+8nw269247 0.0 1019128
03:00+9nw3780100 0.0 1020486
06:00+11nnw47705 0.0 1021651
09:00+14nnw46503 0.0 10201240
12:00+17nnw46385 0.0 10201883
15:00+17n463679 0.0 10192189
18:00+14nne476088 0.0 1020824
21:00+9n387858 0.0 1021380